Regional Weather Roundup
Issued by NWS

Home | Current Version | Previous Version | Text Only | Print | Product List | Glossary On
Versions: 1 2 3 4 5 6 7 8 9 10 11 12 13 14 15 16 17 18 19 20 21 22 23 24 25 26 27 28 29 30 31 32 33 34 35 36 37 38 39 40 41 42 43 44 45 46 47 48 49 50
000
ASUS46 KSTO 150915
RWRCA

NORTHERN AND CENTRAL CA REGIONAL WEATHER ROUNDUP
NATIONAL WEATHER SERVICE SACRAMENTO CA
100 AM PST FRI DEC 15 2017

NOTE: FAIR INDICATES FEW OR NO CLOUDS BELOW 12,000 FEET WITH NO
SIGNIFICANT WEATHER AND/OR OBSTRUCTIONS TO VISIBILITY.

CAZ001-003-151000-
NORTHWEST AREA

CITY           SKY/WX    TMP DP  RH WIND       PRES   REMARKS
CRESCENT CITY  PTCLDY    44  42  93 NE3       30.21S FOG
UKIAH          CLEAR     39  35  86 CALM      30.20R
$$

CAZ006-505>513-151000-
BAY AREA

CITY           SKY/WX    TMP DP  RH WIND       PRES   REMARKS
SANTA ROSA     FOG       37  37 100 W3        30.18R VSB 1/4
SAN RAFAEL     N/A       46  MM  MM MISG
NAPA           CLEAR     36  34  92 CALM      30.19R
CONCORD        CLEAR     40  36  86 CALM      30.20R
OAKLAND CITY   N/A      MM  MM  MM MISG
OAKLAND        CLEAR     47  44  90 CALM      30.17S
SAN FRAN CITY  N/A       52  MM  64 MISG
SAN FRAN ARPT  CLEAR     52  41  66 SW3       30.17R
LIVERMORE      CLEAR     38  33  82 CALM      30.17S
HAYWARD        CLEAR     46  33  60 NE3       30.16S
REDWOOD CITY   N/A       40  MM  83 MISG
MOFFETT ARPT   CLEAR     44  36  73 CALM      30.17S
SAN JOSE ARPT  CLEAR     44  36  73 CALM      30.17S
$$
CAZ034-037-514>518-151000-
CENTRAL COAST

CITY           SKY/WX    TMP DP  RH WIND       PRES   REMARKS
WATSONVILLE    CLEAR     44  36  73 CALM      30.14F
SALINAS        CLEAR     43  28  55 SE8       30.14F
MONTEREY       CLEAR     48  32  53 E7        30.12F
SAN LUIS OBISP CLEAR     41  30  65 CALM      30.13F
SANTA MARIA    CLEAR     45  21  38 S3        30.13F
$$
CAZ015-016-151000-
NORTHERN SACRAMENTO VALLEY

CITY           SKY/WX    TMP DP  RH WIND       PRES   REMARKS
REDDING        PTCLDY    41  36  82 CALM      30.21S
RED BLUFF      PTCLDY    42  37  82 NW7       30.22S
OROVILLE       CLEAR     43  40  89 E3        30.22S
$$
CAZ016>018-151000-
SOUTHERN SACRAMENTO VALLEY

CITY           SKY/WX    TMP DP  RH WIND       PRES   REMARKS
AUBURN         CLEAR     43  37  81 CALM      30.20S
BEALE AFB      CLEAR     40  38  93 NE3       30.19S
LINCOLN        FAIR      36  34  93 CALM      30.20R
MARYSVILLE     CLEAR     35  33  92 CALM      30.22S FOG
SAC INTL ARPT  CLEAR     34  34 100 N5        30.20S WCI  30
MATHER AIRPORT NOT AVBL
DOWNTOWN SAC   N/A       41  MM  MM MISG
SAC EXEC ARPT  CLEAR     38  38 100 CALM      30.20S FOG
VACAVILLE      CLEAR     37  35  92 CALM      30.21S FOG
TRAVIS AFB     CLEAR     35  34  96 CALM      30.19R
$$
CAZ019>021-151000-
SAN JOAQUIN VALLEY

CITY           SKY/WX    TMP DP  RH WIND       PRES   REMARKS
STOCKTON       CLEAR     35  34  96 E5        30.18F FOG     WCI  31
MODESTO        CLEAR     38  36  92 E5        30.19S FOG     WCI  34
MERCED         CLEAR     38  33  82 CALM      30.19S HAZE
LEMOORE        PTCLDY   N/A N/A N/A CALM      30.20S FOG
FRESNO         MOCLDY    40  35  83 CALM      30.21S HAZE
HANFORD        PTCLDY    35  34  96 CALM      30.21R FOG
BAKERSFIELD    PTCLDY    41  31  67 E3        30.18S HAZE
$$
CAZ011-012-071-151000-
NORTHERN MOUNTAINS

CITY           SKY/WX    TMP DP  RH WIND       PRES   REMARKS
YREKA          PTCLDY    26  23  88 SE3       30.31F
MOUNT SHASTA   CLEAR     29  24  82 CALM      30.27F
ALTURAS        CLEAR     20  17  88 CALM      30.30F
$$
CAZ011-012-071-151000-
SIERRA NEVADA MTNS

CITY           SKY/WX    TMP DP  RH WIND       PRES   REMARKS
BLUE CANYON    CLEAR     56   8  14 S3        30.32S
TRUCKEE        CLEAR     19  18  93 CALM      30.37S
TAHOE VLY ARPT CLEAR     23  18  81 S3        30.37F
MAMMOTH LAKES  FAIR      22   6  49 CALM      30.42S
$$



USA.gov is the U.S. government's official web portal to all federal, state and local government web resources and services.